TimeEST,TemperatureF,Dew PointF,Humidity,Sea Level PressureIn,VisibilityMPH,Wind Direction,Wind SpeedMPH,Gust SpeedMPH,PrecipitationIn,Events,Conditions,WindDirDegrees,DateUTC
12:15 AM,15.8,-13.0,27,30.44,10.0,Calm,Calm,-,N/A,,Clear,0,2014-01-24 05:15:00
12:35 AM,15.8,-11.2,30,30.44,10.0,Calm,Calm,-,N/A,,Clear,0,2014-01-24 05:35:00
12:55 AM,15.8,-13.0,27,30.44,10.0,NW,3.5,-,N/A,,Clear,310,2014-01-24 05:55:00
1:15 AM,15.8,-11.2,30,30.44,10.0,WNW,3.5,-,N/A,,Clear,300,2014-01-24 06:15:00
1:35 AM,15.8,-13.0,27,30.45,10.0,Calm,Calm,-,N/A,,Clear,0,2014-01-24 06:35:00
1:55 AM,15.8,-11.2,30,30.45,10.0,Calm,Calm,-,N/A,,Clear,0,2014-01-24 06:55:00
2:15 AM,14.0,-13.0,29,30.46,10.0,Calm,Calm,-,N/A,,Clear,0,2014-01-24 07:15:00
2:35 AM,12.2,-11.2,34,30.46,10.0,Calm,Calm,-,N/A,,Clear,0,2014-01-24 07:35:00
2:55 AM,12.2,-9.4,38,30.48,10.0,Calm,Calm,-,N/A,,Clear,0,2014-01-24 07:55:00
3:15 AM,10.4,-9.4,41,30.48,10.0,Calm,Calm,-,N/A,,Clear,0,2014-01-24 08:15:00
3:35 AM,10.4,-9.4,41,30.48,10.0,West,3.5,-,N/A,,Clear,270,2014-01-24 08:35:00
3:55 AM,10.4,-9.4,41,30.48,10.0,West,3.5,-,N/A,,Clear,260,2014-01-24 08:55:00
4:15 AM,10.4,-9.4,41,30.49,10.0,West,4.6,-,N/A,,Clear,260,2014-01-24 09:15:00
4:35 AM,10.4,-9.4,41,30.50,10.0,Calm,Calm,-,N/A,,Clear,0,2014-01-24 09:35:00
4:55 AM,8.6,-9.4,44,30.50,10.0,Calm,Calm,-,N/A,,Clear,0,2014-01-24 09:55:00
5:15 AM,8.6,-9.4,44,30.51,10.0,Calm,Calm,-,N/A,,Clear,0,2014-01-24 10:15:00
5:35 AM,8.6,-9.4,44,30.51,10.0,Calm,Calm,-,N/A,,Clear,0,2014-01-24 10:35:00
5:55 AM,8.6,-9.4,44,30.52,10.0,Calm,Calm,-,N/A,,Clear,0,2014-01-24 10:55:00
6:15 AM,6.8,-9.4,48,30.53,10.0,Calm,Calm,-,N/A,,Clear,0,2014-01-24 11:15:00
6:35 AM,6.8,-9.4,48,30.53,10.0,Calm,Calm,-,N/A,,Clear,0,2014-01-24 11:35:00
6:55 AM,6.8,-9.4,48,30.54,10.0,Calm,Calm,-,N/A,,Clear,0,2014-01-24 11:55:00
7:15 AM,5.0,-9.4,52,30.55,10.0,Calm,Calm,-,N/A,,Clear,0,2014-01-24 12:15:00
7:35 AM,6.8,-7.6,52,30.54,10.0,Calm,Calm,-,N/A,,Clear,0,2014-01-24 12:35:00
7:55 AM,8.6,-5.8,52,30.55,10.0,Calm,Calm,-,N/A,,Clear,0,2014-01-24 12:55:00
8:15 AM,12.2,-7.6,41,30.54,10.0,WSW,6.9,-,N/A,,Clear,250,2014-01-24 13:15:00
8:35 AM,15.8,-9.4,32,30.55,10.0,WSW,4.6,-,N/A,,Clear,240,2014-01-24 13:35:00
8:55 AM,17.6,-9.4,30,30.55,10.0,WSW,5.8,-,N/A,,Clear,250,2014-01-24 13:55:00
9:15 AM,17.6,-11.2,27,30.56,10.0,West,3.5,-,N/A,,Clear,270,2014-01-24 14:15:00
9:35 AM,19.4,-11.2,25,30.56,10.0,WNW,4.6,-,N/A,,Clear,290,2014-01-24 14:35:00
9:55 AM,21.2,-11.2,24,30.55,10.0,WNW,4.6,-,N/A,,Clear,290,2014-01-24 14:55:00
10:15 AM,21.2,-11.2,24,30.55,10.0,SW,5.8,-,N/A,,Clear,230,2014-01-24 15:15:00
10:35 AM,21.2,-11.2,24,30.54,10.0,West,3.5,-,N/A,,Clear,270,2014-01-24 15:35:00
10:55 AM,23.0,-13.0,20,30.53,10.0,Calm,Calm,-,N/A,,Clear,0,2014-01-24 15:55:00
11:15 AM,24.8,-9.4,22,30.52,10.0,SW,4.6,-,N/A,,Clear,220,2014-01-24 16:15:00
11:35 AM,24.8,-11.2,20,30.51,10.0,Calm,Calm,-,N/A,,Clear,0,2014-01-24 16:35:00
11:55 AM,26.6,-11.2,19,30.49,10.0,West,3.5,-,N/A,,Clear,260,2014-01-24 16:55:00
12:15 PM,26.6,-11.2,19,30.47,10.0,SW,3.5,-,N/A,,Clear,230,2014-01-24 17:15:00
12:35 PM,26.6,-13.0,17,30.46,10.0,WSW,8.1,-,N/A,,Clear,250,2014-01-24 17:35:00
12:55 PM,28.4,-11.2,18,30.45,10.0,SSW,4.6,-,N/A,,Clear,210,2014-01-24 17:55:00
1:15 PM,26.6,-16.6,14,30.44,10.0,West,5.8,-,N/A,,Clear,270,2014-01-24 18:15:00
1:35 PM,28.4,-11.2,18,30.43,10.0,SSW,6.9,-,N/A,,Clear,210,2014-01-24 18:35:00
1:55 PM,26.6,-11.2,19,30.42,10.0,South,5.8,-,N/A,,Clear,170,2014-01-24 18:55:00
2:15 PM,28.4,-11.2,18,30.41,10.0,South,6.9,-,N/A,,Clear,190,2014-01-24 19:15:00
2:35 PM,28.4,-13.0,16,30.39,10.0,West,3.5,-,N/A,,Clear,260,2014-01-24 19:35:00
2:55 PM,28.4,-11.2,18,30.38,10.0,SW,10.4,16.1,N/A,,Clear,220,2014-01-24 19:55:00
3:15 PM,28.4,-13.0,16,30.38,10.0,SW,9.2,-,N/A,,Clear,220,2014-01-24 20:15:00
3:35 PM,28.4,-13.0,16,30.37,10.0,SSW,9.2,-,N/A,,Clear,210,2014-01-24 20:35:00
3:55 PM,28.4,-14.8,15,30.37,10.0,WSW,9.2,17.3,N/A,,Clear,240,2014-01-24 20:55:00
4:15 PM,28.4,-14.8,15,30.36,10.0,SW,6.9,16.1,N/A,,Clear,220,2014-01-24 21:15:00
4:35 PM,28.4,-14.8,15,30.34,10.0,SSW,8.1,-,N/A,,Clear,200,2014-01-24 21:35:00
4:55 PM,26.6,-11.2,19,30.33,10.0,SSW,5.8,-,N/A,,Clear,200,2014-01-24 21:55:00
5:15 PM,24.8,-11.2,20,30.32,10.0,SSW,6.9,-,N/A,,Clear,200,2014-01-24 22:15:00
5:35 PM,23.0,-9.4,24,30.31,10.0,South,9.2,-,N/A,,Clear,190,2014-01-24 22:35:00
5:55 PM,21.2,-9.4,26,30.31,10.0,SSW,5.8,-,N/A,,Clear,200,2014-01-24 22:55:00
6:15 PM,19.4,-9.4,28,30.31,10.0,SSW,5.8,-,N/A,,Clear,200,2014-01-24 23:15:00
6:35 PM,19.4,-7.6,30,30.31,10.0,South,5.8,-,N/A,,Clear,190,2014-01-24 23:35:00
6:55 PM,17.6,-7.6,32,30.30,10.0,South,5.8,-,N/A,,Clear,190,2014-01-24 23:55:00
7:15 PM,17.6,-7.6,32,30.29,10.0,SSW,6.9,-,N/A,,Clear,200,2014-01-25 00:15:00
7:35 PM,17.6,-5.8,35,30.28,10.0,South,8.1,-,N/A,,Clear,190,2014-01-25 00:35:00
7:55 PM,17.6,-7.6,32,30.27,10.0,SSW,6.9,-,N/A,,Clear,200,2014-01-25 00:55:00
8:15 PM,17.6,-7.6,32,30.26,10.0,South,6.9,-,N/A,,Clear,190,2014-01-25 01:15:00
8:35 PM,17.6,-7.6,32,30.25,10.0,SSW,4.6,-,N/A,,Clear,200,2014-01-25 01:35:00
8:55 PM,15.8,-5.8,38,30.23,10.0,South,5.8,-,N/A,,Clear,190,2014-01-25 01:55:00
9:15 PM,15.8,-5.8,38,30.22,10.0,SSW,6.9,-,N/A,,Clear,200,2014-01-25 02:15:00
9:35 PM,17.6,-7.6,32,30.20,10.0,South,8.1,-,N/A,,Clear,190,2014-01-25 02:35:00
9:55 PM,17.6,-5.8,35,30.19,10.0,SSW,8.1,-,N/A,,Clear,200,2014-01-25 02:55:00
10:15 PM,17.6,-7.6,32,30.18,10.0,South,10.4,-,N/A,,Clear,190,2014-01-25 03:15:00
10:35 PM,19.4,-7.6,30,30.17,10.0,SSW,10.4,-,N/A,,Clear,200,2014-01-25 03:35:00
10:55 PM,19.4,-7.6,30,30.17,10.0,SSW,10.4,16.1,N/A,,Clear,200,2014-01-25 03:55:00
11:15 PM,19.4,-7.6,30,30.16,10.0,SSW,9.2,-,N/A,,Clear,200,2014-01-25 04:15:00
11:35 PM,19.4,-7.6,30,30.15,10.0,SSW,10.4,-,N/A,,Clear,200,2014-01-25 04:35:00
11:55 PM,19.4,-7.6,30,30.14,10.0,SSW,8.1,-,N/A,,Clear,210,2014-01-25 04:55:00